| time (UTC) | temp F | wind direction | speed MPH | gust MPH | rain 1hr in | rain 24hr in | rain mn in | humidity % | barometer mb |
| 20260509093055 | 40 | 117 | 0.0 | 0.0 | 0.00 | 0.00 | 0.00 | 79 | 1022.6 |
| 20260509091558 | 39 | 126 | 0.0 | 0.0 | 0.00 | 0.00 | 0.00 | 77 | 1022.7 |
| 20260509084559 | 40 | 114 | 0.0 | 2.0 | 0.00 | 0.00 | 0.00 | 77 | 1022.7 |
| 20260509083051 | 40 | 93 | 1.0 | 2.0 | 0.00 | 0.00 | 0.00 | 75 | 1022.8 |
| 20260509081550 | 40 | 93 | 0.0 | 2.0 | 0.00 | 0.00 | 0.00 | 76 | 1022.8 |
| 20260509080046 | 42 | 103 | 1.0 | 2.0 | 0.00 | 0.00 | 0.00 | 72 | 1022.8 |
| 20260509074550 | 42 | 87 | 0.0 | 1.0 | 0.00 | 0.00 | 0.00 | 72 | 1022.7 |
| 20260509073042 | 41 | 104 | 0.0 | 2.0 | 0.00 | 0.00 | 0.00 | 75 | 1022.7 |
| 20260509071539 | 41 | 94 | 1.0 | 3.0 | 0.00 | 0.00 | 0.00 | 74 | 1022.5 |
| 20260509070037 | 41 | 101 | 1.0 | 3.0 | 0.00 | 0.00 | 0.00 | 75 | 1022.2 |
| 20260509064535 | 43 | 88 | 0.0 | 2.0 | 0.00 | 0.00 | 0.00 | 71 | 1022.1 |
| 20260509063035 | 44 | 99 | 0.0 | 0.0 | 0.00 | 0.00 | 0.00 | 68 | 1021.9 |
| 20260509061533 | 44 | 99 | 0.0 | 2.0 | 0.00 | 0.00 | 0.00 | 68 | 1021.8 |
| 20260509060032 | 46 | 105 | 0.0 | 2.0 | 0.00 | 0.00 | 0.00 | 67 | 1021.7 |
| 20260509054540 | 47 | 94 | 1.0 | 2.0 | 0.00 | 0.00 | 0.00 | 63 | 1021.7 |
| 20260509053110 | 51 | 267 | 0.0 | 0.0 | 0.00 | 0.00 | 0.00 | 58 | 1021.8 |
| 20260509051532 | 52 | 267 | 0.0 | 0.0 | 0.00 | 0.00 | 0.00 | 54 | 1021.7 |
| 20260509050039 | 54 | 292 | 0.0 | 0.0 | 0.00 | 0.00 | 0.00 | 51 | 1021.6 |
| 20260509044526 | 55 | 292 | 0.0 | 0.0 | 0.00 | 0.00 | 0.00 | 49 | 1021.3 |
| 20260509043025 | 56 | 243 | 0.0 | 0.0 | 0.00 | 0.00 | 0.00 | 48 | 1021.2 |
| 20260509041524 | 58 | 252 | 0.0 | 2.0 | 0.00 | 0.00 | 0.00 | 45 | 1021.1 |
| 20260509040022 | 60 | 273 | 0.0 | 2.0 | 0.00 | 0.00 | 0.00 | 42 | 1020.9 |
| 20260509034520 | 61 | 320 | 1.0 | 3.0 | 0.00 | 0.00 | 0.00 | 40 | 1020.7 |
| 20260509033018 | 62 | 9 | 2.0 | 7.0 | 0.00 | 0.00 | 0.00 | 39 | 1020.3 |
| 20260509031517 | 63 | 337 | 2.0 | 10.0 | 0.00 | 0.00 | 0.00 | 37 | 1020.2 |
| 20260509030026 | 65 | 304 | 3.0 | 11.0 | 0.00 | 0.00 | 0.00 | 35 | 1019.7 |
| 20260509024511 | 66 | 294 | 3.0 | 9.0 | 0.00 | 0.00 | 0.00 | 34 | 1019.4 |
| 20260509023022 | 67 | 282 | 5.0 | 13.0 | 0.00 | 0.00 | 0.00 | 34 | 1019.2 |
| 20260509021512 | 68 | 315 | 4.0 | 8.0 | 0.00 | 0.00 | 0.00 | 31 | 1019.1 |
| 20260509020009 | 69 | 309 | 4.0 | 11.0 | 0.00 | 0.00 | 0.00 | 30 | 1018.9 |
| 20260509014508 | 70 | 5 | 3.0 | 9.0 | 0.00 | 0.00 | 0.00 | 28 | 1018.7 |
| 20260509013007 | 70 | 309 | 6.0 | 13.0 | 0.00 | 0.00 | 0.00 | 26 | 1018.5 |
| 20260509011508 | 71 | 331 | 4.0 | 13.0 | 0.00 | 0.00 | 0.00 | 26 | 1018.4 |
| 20260509010012 | 71 | 331 | 5.0 | 11.0 | 0.00 | 0.00 | 0.00 | 26 | 1018.4 |
| 20260509004506 | 72 | 349 | 4.0 | 13.0 | 0.00 | 0.00 | 0.00 | 25 | 1018.4 |
| 20260509003006 | 72 | 288 | 4.0 | 11.0 | 0.00 | 0.00 | 0.00 | 25 | 1018.4 |
| 20260509001505 | 72 | 333 | 4.0 | 11.0 | 0.00 | 0.00 | 0.00 | 26 | 1018.3 |
| 20260509000007 | 72 | 312 | 5.0 | 13.0 | 0.00 | 0.00 | 0.00 | 25 | 1018.2 |
| 20260508234506 | 73 | 323 | 5.0 | 11.0 | 0.00 | 0.00 | 0.00 | 25 | 1018.1 |
| 20260508233004 | 73 | 288 | 5.0 | 13.0 | 0.00 | 0.00 | 0.00 | 24 | 1018.2 |
| 20260508231504 | 73 | 283 | 6.0 | 18.0 | 0.00 | 0.00 | 0.00 | 24 | 1018.2 |
| 20260508230007 | 73 | 263 | 4.0 | 11.0 | 0.00 | 0.00 | 0.00 | 25 | 1018.1 |
| 20260508224502 | 73 | 325 | 6.0 | 16.0 | 0.00 | 0.00 | 0.00 | 24 | 1018.3 |
| 20260508223002 | 72 | 325 | 6.0 | 15.0 | 0.00 | 0.00 | 0.00 | 25 | 1018.4 |
| 20260508221502 | 73 | 343 | 9.0 | 17.0 | 0.00 | 0.00 | 0.00 | 23 | 1018.3 |
| 20260508220100 | 72 | 248 | 5.0 | 14.0 | 0.00 | 0.00 | 0.00 | 23 | 1018.4 |
| 20260508214559 | 73 | 296 | 6.0 | 15.0 | 0.00 | 0.00 | 0.00 | 23 | 1018.6 |
| 20260508213103 | 73 | 335 | 6.0 | 15.0 | 0.00 | 0.00 | 0.00 | 21 | 1018.6 |
| 20260508211558 | 72 | 300 | 5.0 | 15.0 | 0.00 | 0.00 | 0.00 | 22 | 1018.4 |
| 20260508210057 | 72 | 253 | 7.0 | 16.0 | 0.00 | 0.00 | 0.00 | 19 | 1018.5 |
| 20260508204555 | 72 | 350 | 5.0 | 10.0 | 0.00 | 0.00 | 0.00 | 20 | 1018.4 |
| 20260508203054 | 71 | 342 | 8.0 | 13.0 | 0.00 | 0.00 | 0.00 | 20 | 1018.4 |
| 20260508201605 | 71 | 265 | 5.0 | 13.0 | 0.00 | 0.00 | 0.00 | 22 | 1018.7 |
| 20260508200059 | 70 | 282 | 5.0 | 10.0 | 0.00 | 0.00 | 0.00 | 22 | 1018.7 |
| 20260508194551 | 69 | 285 | 5.0 | 12.0 | 0.00 | 0.00 | 0.00 | 21 | 1018.8 |
| 20260508193056 | 68 | 9 | 2.0 | 10.0 | 0.00 | 0.00 | 0.00 | 24 | 1018.6 |
| 20260508191546 | 68 | 36 | 0.0 | 6.0 | 0.00 | 0.00 | 0.00 | 26 | 1018.6 |
| 20260508190047 | 66 | 360 | 3.0 | 9.0 | 0.00 | 0.00 | 0.00 | 27 | 1018.7 |
| 20260508184550 | 66 | 299 | 1.0 | 8.0 | 0.00 | 0.00 | 0.00 | 27 | 1018.7 |
| 20260508183049 | 67 | 305 | 2.0 | 5.0 | 0.00 | 0.00 | 0.00 | 27 | 1018.6 |
| 20260508181542 | 66 | 286 | 0.0 | 6.0 | 0.00 | 0.00 | 0.00 | 28 | 1018.6 |
| 20260508180040 | 66 | 79 | 1.0 | 6.0 | 0.00 | 0.00 | 0.00 | 28 | 1018.5 |
| 20260508174554 | 65 | 307 | 0.0 | 6.0 | 0.00 | 0.00 | 0.00 | 30 | 1018.8 |
| 20260508173034 | 64 | 296 | 2.0 | 6.0 | 0.00 | 0.00 | 0.00 | 29 | 1018.9 |
| 20260508171533 | 63 | 323 | 2.0 | 5.0 | 0.00 | 0.00 | 0.00 | 32 | 1019.0 |
| 20260508170033 | 62 | 48 | 0.0 | 4.0 | 0.00 | 0.00 | 0.00 | 35 | 1019.1 |
| 20260508164523 | 60 | 103 | 1.0 | 4.0 | 0.00 | 0.00 | 0.00 | 38 | 1019.2 |
| 20260508163036 | 58 | 86 | 1.0 | 3.0 | 0.00 | 0.00 | 0.00 | 38 | 1019.1 |
| 20260508161518 | 57 | 107 | 0.0 | 2.0 | 0.00 | 0.00 | 0.00 | 39 | 1019.2 |
| 20260508160016 | 55 | 17 | 0.0 | 4.0 | 0.00 | 0.00 | 0.00 | 41 | 1019.2 |
| 20260508154510 | 52 | 87 | 0.0 | 4.0 | 0.00 | 0.00 | 0.00 | 44 | 1019.1 |
| 20260508153012 | 50 | 50 | 0.0 | 5.0 | 0.00 | 0.00 | 0.00 | 48 | 1019.0 |
| 20260508151509 | 50 | 72 | 2.0 | 7.0 | 0.00 | 0.00 | 0.00 | 52 | 1018.8 |
| 20260508150105 | 48 | 44 | 3.0 | 9.0 | 0.00 | 0.00 | 0.00 | 56 | 1018.9 |
| 20260508144602 | 44 | 94 | 2.0 | 4.0 | 0.00 | 0.00 | 0.00 | 61 | 1018.9 |
| 20260508143055 | 44 | 83 | 0.0 | 3.0 | 0.00 | 0.00 | 0.00 | 61 | 1018.8 |
| 20260508141558 | 44 | 105 | 0.0 | 2.0 | 0.00 | 0.00 | 0.00 | 62 | 1018.9 |
| 20260508140053 | 43 | 92 | 0.0 | 3.0 | 0.00 | 0.00 | 0.00 | 68 | 1018.8 |
| 20260508134552 | 42 | 53 | 1.0 | 5.0 | 0.00 | 0.00 | 0.00 | 66 | 1018.7 |
| 20260508133051 | 41 | 103 | 1.0 | 4.0 | 0.00 | 0.00 | 0.00 | 68 | 1018.6 |
| 20260508131555 | 40 | 94 | 2.0 | 5.0 | 0.00 | 0.00 | 0.00 | 70 | 1018.4 |
| 20260508130103 | 41 | 95 | 0.0 | 4.0 | 0.00 | 0.00 | 0.00 | 68 | 1018.3 |
| 20260508124545 | 40 | 51 | 1.0 | 4.0 | 0.00 | 0.00 | 0.00 | 68 | 1017.9 |
| 20260508123044 | 40 | 83 | 1.0 | 5.0 | 0.00 | 0.00 | 0.00 | 68 | 1017.8 |
| 20260508121542 | 39 | 85 | 1.0 | 2.0 | 0.00 | 0.00 | 0.00 | 72 | 1017.9 |
| 20260508120044 | 41 | 133 | 1.0 | 4.0 | 0.00 | 0.00 | 0.00 | 70 | 1017.7 |
| 20260508114539 | 40 | 84 | 1.0 | 5.0 | 0.00 | 0.00 | 0.00 | 71 | 1017.8 |
| 20260508113048 | 40 | 71 | 0.0 | 2.0 | 0.00 | 0.00 | 0.00 | 70 | 1017.7 |
| 20260508111537 | 40 | 114 | 0.0 | 2.0 | 0.00 | 0.00 | 0.00 | 72 | 1017.6 |
| 20260508110047 | 40 | 145 | 0.0 | 2.0 | 0.00 | 0.00 | 0.00 | 72 | 1017.6 |
| 20260508104532 | 41 | 103 | 1.0 | 3.0 | 0.00 | 0.00 | 0.00 | 69 | 1017.3 |
| 20260508103035 | 43 | 105 | 1.0 | 3.0 | 0.00 | 0.00 | 0.00 | 67 | 1017.3 |
| 20260508101535 | 43 | 88 | 0.0 | 3.0 | 0.00 | 0.00 | 0.00 | 65 | 1017.3 |
| 20260508100027 | 43 | 105 | 1.0 | 3.0 | 0.00 | 0.00 | 0.00 | 67 | 1017.4 |
| 20260508094526 | 43 | 120 | 0.0 | 3.0 | 0.00 | 0.00 | 0.00 | 66 | 1017.2 |